Regional Weather Roundup
Issued by NWS

Home | Current Version | Previous Version | Graphics & Text | Print | Product List | Glossary On
Versions: 1 2 3 4 5 6 7 8 9 10 11 12 13 14 15 16 17 18 19 20 21 22 23 24 25 26 27 28 29 30 31 32 33 34 35 36 37 38 39 40 41 42 43 44 45 46 47 48 49 50
227
ASUS44 KJAN 161103
RWRMS

MISSISSIPPI HOURLY WEATHER ROUNDUP
NATIONAL WEATHER SERVICE JACKSON MS
600 AM CDT WED APR 16 2014

NOTE: "FAIR: INDICATES FEW OR NO CLOUDS BELOW 12,000 FEET WITH NO
SIGNIFICANT WEATHER AND/OR OBSTRUCTIONS TO VISIBILITY.

MSZ001>002-007>008-010>013-018>021-025>028-034>036-161200-
NORTHWEST MISSISSIPPI

CITY           SKY/WX    TMP DP  RH WIND       PRES   REMARKS
CLARKSDALE       N/A     36  30  80 CALM      30.25S
CLEVELAND      FAIR      36  33  87 E3        30.24R
GREENWOOD      CLEAR     36  27  69 E9        30.24R WCI  29
GREENVILLE     CLEAR     38  30  73 E3        30.23R
GRENADA        FAIR      37  28  70 E12G20    30.26R WCI  30
OLIVE BRANCH   CLEAR     32  28  86 E6        30.26R WCI  26
OXFORD         FAIR      32  25  74 E3        30.26R
TUNICA         SUNNY     36  30  80 CALM      30.27R
$$

MSZ003>006-009-014>017-022>024-029>033-037>039-161200-
NORTHEAST MISSISSIPPI

CITY           SKY/WX    TMP DP  RH WIND       PRES   REMARKS
BELMONT        FAIR      31  25  79 CALM      30.24S
COLUMBUS AFB   CLEAR     34  28  78 NE3       30.26R
CORINTH        FAIR      32  28  86 CALM      30.26R
GOLDN TRIANGLE CLEAR     36  25  64 NE8       30.27R WCI  29
STARKVILLE     FAIR      32  32 100 NE5       30.25R WCI  27
TUPELO         CLEAR     31  26  82 CALM      30.26R
$$

MSZ040-058-161200-
CENTRAL MISSISSIPPI

CITY           SKY/WX    TMP DP  RH WIND       PRES   REMARKS
JACKSON INTL   CLEAR     37  29  72 NE5       30.21R WCI  33
JACKSON HAWKNS CLEAR     37  30  75 CALM      30.21S
MERIDIAN KEY   CLEAR     35  29  78 NE6       30.24R WCI  30
MERIDIAN NAS   CLEAR     35  29  78 N3        30.25R
RAYMOND        FAIR      34  28  80 MISG      30.22R
VICKSBURG      CLEAR     43  32  65 E7        30.23R
$$

MSZ059>079-161200-
SOUTH MISSISSIPPI

CITY           SKY/WX    TMP DP  RH WIND       PRES   REMARKS
BROOKHAVEN     FAIR      32  32 100 CALM      30.21R
COLUMBIA       FAIR      36  32  87 MISG      30.19R
HATTIESBURG    CLEAR     36  33  89 N3        30.22R
MCCOMB         CLEAR     36  31  82 CALM      30.20R
NATCHEZ          N/A     37  30  75 E5        30.21R WCI  34
PINE BELT      CLEAR     36  28  75 NE5       30.21R WCI  32
$$

MSZ080>082-161200-
COASTAL MISSISSIPPI

CITY           SKY/WX    TMP DP  RH WIND       PRES   REMARKS
BILOXI         CLEAR     40  34  80 N7        30.19R
PASCAGOULA     CLEAR     37  34  89 CALM      30.20R
GULFPORT       CLEAR     41  33  73 N5        30.19R
$$



USA.gov is the U.S. government's official web portal to all federal, state and local government web resources and services.